SCP
0 0 0 0 0 0 0 0 0 0 0 0 0 0 0 0 0 0 0 0 0 0 0 0 0 0 0 0 0 0 0 0 0 0 0 0 0 0 0 0 0 0 0 0
0 0 0 0 0 0 0 0 0 0 0 0 0 0 0 0 0 0 0 0 0 0 0 0 0 0 0 0 0 0 0 0 0 0 0 0 0 0 0 0 0 0 0 0
0 0 0 0 0 0 0 0 0 0 0 0 0 0 0 0 0 0 0 0 0 0 0 0 0 0 0 0 0 0 0 0 0 0 0 0 0 0 0 0 0 0 0 0
0 0 0 0 0 0 0 0 0 0 0 0 0 -0 -0 0 0 0 0 0 0 0 0 0 0 0 0 0 0 0 0 0 0 0 0 0 0 0 0 0 0 0 0 0
0 0 0 0 0 0 0 0 0 0 0 0 0 0 -0 -0 0 0 0 0 0 0 0 0 0 0 0 0 0 0 0 0 0 0 0 0 0 0 0 0 0 0 0 0
0 0 0 0 0 0 0 0 0 0 0 0 0 0 -0 0 0 0 0 0 0 0 0 0 0 0 0 0 0 0 0 0 0 0 0 0 0 0 0 0 0 0 0 0
0 0 0 0 0 0 0 0 0 0 0 0 0 0 0 0 0 0 0 0 0 0 0 0 0 0 0 0 0 0 0 0 0 0 0 0 0 0 0 0 0 0 0 0
0 0 0 0 0 0 0 0 0 0 0 0 0 0 0 0 0 0 0 0 0 -0 0 0 0 0 0 0 0 0 0 0 0 0 0 0 0 0 0 0 0 0 0 0
0 0 0 0 0 0 0 0 0 0 0 0 0 0 0 0 0 0 0 0 0 0 0 0 0 0 0 0 0 0 0 0 0 0 0 0 0 0 0 0 0 0 0 0
-0 0 0 0 0 0 0 0 0 0 0 0 0 0 0 0 0 0 0 -0 0 0 0 0 0 0 0 0 0 0 0 0 0 0 0 0 0 0 0 0 0 0 0 0
-0 -0 0 0 0 0 0 0 0 0 0 0 0 0 0 0 0 0 0 0 0 0 0 0 0 0 0 0 0 0 0 0 0 0 0 0 0 0 0 0 0 0 0 0
-0 -0 0 0 0 0 0 0 0 0 0 0 0 0 0 0 0 0 0 0 0 0 0 0 0 0 0 0 0 0 0 0 0 0 0 0 0 0 0 0 0 0 0 0
0 -0 -0 0 0 0 0 0 0 0 0 0 0 0 0 0 0 -0 0 0 0 0 0 0 0 0 0 0 0 0 0 0 0 0 0 0 0 0 0 0 0 0 0 0
0 0 0 0 0 0 0 0 0 0 0 0 0 0 0 0 0 0 0 0 0 0 0 0 0 0 0 0 0 0 0 0 0 0 0 0 0 0 0 0 0 0 0 0
0 0 0 0 -0 0 0 0 -0 0 0 0 0 0 0 0 0 0 0 0 0 0 0 0 0 0 0 0 0 0 0 0 0 0 0 0 0 0 0 0 0 0 0 0
0 0 0 0 0 -0 0 0 0 -0 0 0 0 -0 -0 0 0 0 -0 0 0 0 0 0 -0 -0 -0 -0 0 0 0 0 0 0 0 0 0 0 0 0 0 0 0 0
0 0 0 0 0 0 -0 0 0 0 0 0 0 0 -0 -0 0 0 0 0 0 0 0 0 -0 -0 -0 0 0 0 0 0 0 0 0 0 0 0 0 0 0 0 0 0
0 0 0 0 0 0 0 -0 0 0 0 0 0 0 -0 -0 0 0 0 0 0 -0 -0 -0 0 0 0 0 0 0 0 0 0 0 0 0 0 0 0 0 0 0 0 0
0 0 0 0 0 0 0 0 0 0 0 0 0 0 0 0 0 0 0 0 0 0 0 0 0 0 0 0 0 0 0 0 0 0 0 0 0 0 0 0 0 0 0 0
0 0 0 0 0 0 0 0 0 0 0 -0 0 0 0 0 0 0 0 0 0 0 0 0 0 0 0 0 0 0 0 0 0 0 0 0 0 0 0 0 0 0 0 0
0 0 0 0 0 0 0 0 -0 -0 0 0 -0 -0 0 0 0 0 0 0 0 0 0 0 0 0 0 0 0 0 0 0 0 0 0 0 0 0 0 0 0 0 0 0
0 0 0 0 0 -0 0 0 -0 0 -0 -0 -0 -0 -0 0 0 0 0 0 0 0 0 0 0 0 0 0 0 0 0 0 0 0 0 0 0 0 0 0 0 0 0 0
0 0 0 0 0 0 -0 -0 -0 -0 -0 -0 0 -0 -0 0 0 0 0 0 0 -0 -0 0 0 0 0 0 0 0 0 0 0 0 0 0 0 0 0 0 0 0 0 0
0 0 0 0 0 0 0 -0 0 -0 -0 -0 -0 -0 -0 -0 -0 -0 -0 0 0 -0 -0 -0 0 0 0 0 0 0 0 0 0 0 0 0 0 0 0 0 0 0 0 0
0 0 0 0 0 0 0 -0 -0 -0 -0 0 -0 -0 -0 -0 -0 0 -0 0 0 0 -0 -0 -0 0 0 0 0 0 0 0 0 0 0 0 0 0 0 0 0 0 0 0
0 0 0 0 0 0 -0 -0 -0 -0 -0 -0 0 -0 -0 -0 0 0 0 0 0 0 -0 -0 -0 0 0 0 0 0 0 0 0 0 0 0 0 0 0 0 0 0 0 0
Wind_Speed_500mb
32 16 29 39 35 39 32 36 39 33 26 17 19 23 18 24 39 40 51 51 48 51 46 62 69 75 72 71 75 74 78 79 89 99 94 92 94 87 78 74 65 59 52 55
14 37 35 31 35 37 36 39 41 30 26 29 28 43 31 22 30 50 49 51 60 59 59 51 47 73 80 78 79 80 79 81 83 100 100 99 96 96 86 79 72 65 60 55
31 30 38 37 30 33 35 37 31 33 20 29 23 50 34 31 49 59 71 72 69 61 51 59 60 57 83 85 82 85 87 83 83 90 99 98 93 95 89 90 83 79 70 67
34 31 33 29 26 28 36 24 27 32 17 17 10 34 17 13 24 34 73 79 73 72 78 65 69 70 81 88 86 84 92 89 87 90 103 105 107 113 109 105 96 86 80 77
45 8 16 36 41 25 40 13 20 16 17 15 32 18 6 20 26 33 29 49 76 80 79 80 81 78 81 90 93 88 93 95 90 88 94 105 97 105 99 105 104 99 92 87
54 37 31 16 17 26 24 15 21 16 10 19 39 24 27 21 29 22 15 33 39 57 66 75 74 77 79 89 95 90 90 98 97 96 101 107 104 99 105 102 109 106 105 98
33 48 52 45 29 23 16 16 12 11 13 29 19 22 43 19 14 15 25 41 43 42 39 60 69 67 72 85 97 96 92 97 103 103 102 105 106 105 107 107 106 104 105 104
20 23 41 37 47 29 27 32 15 21 24 30 20 16 35 24 46 63 58 57 49 42 49 39 45 56 59 63 90 98 96 94 101 103 104 105 106 105 107 106 104 105 101 96
11 14 31 25 39 43 50 32 51 34 35 20 11 24 43 30 33 19 26 48 58 55 54 49 47 54 61 63 75 93 93 91 97 102 102 102 105 105 104 105 105 102 99 92
6 15 16 22 26 19 51 37 28 24 38 41 28 27 34 13 15 22 34 35 60 72 60 53 52 50 50 60 64 75 87 92 91 97 102 103 101 101 100 99 105 105 100 93
5 8 16 19 5 18 18 39 36 27 20 33 33 21 30 41 22 21 21 24 21 12 11 25 34 32 48 50 60 72 84 88 90 93 96 102 100 98 98 99 98 104 99 96
5 6 8 29 42 38 34 26 34 22 32 24 37 34 35 26 13 13 20 14 8 6 5 8 14 29 41 48 56 60 73 83 86 86 90 97 95 90 95 99 93 96 98 95
8 5 6 22 18 7 2 12 34 32 12 43 35 27 31 37 50 36 11 12 13 5 1 3 6 6 10 21 40 58 62 69 73 77 83 88 90 88 90 92 93 93 93 92
11 7 15 13 22 22 29 37 25 24 12 19 23 47 47 30 19 18 33 28 35 38 23 19 11 13 21 23 24 32 50 59 64 71 76 82 88 85 84 88 87 89 87 89
12 11 21 28 37 38 38 44 40 34 37 31 38 45 46 40 42 33 34 36 14 29 31 31 29 28 36 32 25 28 31 43 53 66 73 78 79 78 77 82 85 88 89 88
14 14 17 23 33 36 39 41 38 37 39 43 49 59 48 46 76 38 43 46 30 36 40 41 41 38 31 29 21 22 27 35 43 52 65 72 73 74 74 76 81 87 89 87
12 7 6 26 27 25 16 30 31 38 43 40 45 52 51 40 46 41 55 57 63 55 44 42 46 48 44 47 45 42 39 35 41 47 53 61 65 72 76 76 78 88 91 86
12 14 7 22 10 20 33 33 40 45 49 44 35 44 47 37 57 65 63 68 67 62 62 54 54 57 60 52 49 46 43 44 44 49 52 56 61 67 72 73 80 86 86 85
27 18 14 14 15 30 38 32 24 38 49 43 52 49 46 53 58 69 81 76 64 57 58 65 66 69 63 60 55 50 48 47 47 50 54 57 60 64 70 74 77 80 81 80
35 28 22 12 14 18 40 35 31 35 32 66 29 49 47 43 31 29 58 60 73 84 97 87 79 74 71 65 63 55 52 52 54 52 54 56 59 63 67 67 69 74 74 75
6 7 30 28 23 20 34 21 35 24 46 24 34 33 35 30 38 85 64 48 56 59 62 60 59 59 56 58 60 59 55 61 55 52 53 56 56 59 59 60 65 69 72 71
15 9 11 8 13 33 23 21 16 26 55 61 75 66 50 54 75 59 70 74 67 66 69 69 64 56 51 50 53 53 56 55 55 52 52 53 53 54 56 60 65 68 67 72
17 22 12 15 11 13 56 34 75 50 44 65 82 87 72 67 68 66 54 47 54 59 58 52 48 49 45 43 44 48 50 55 54 52 50 52 52 53 57 61 65 68 71 75
10 11 14 27 28 25 63 58 63 78 51 78 68 63 51 49 57 74 70 61 59 39 28 28 37 47 46 46 50 48 48 51 51 50 48 49 52 52 56 59 64 71 76 79
13 4 14 16 23 43 73 65 51 52 70 69 75 79 72 69 71 66 75 68 62 48 27 24 23 26 32 37 40 43 45 49 49 47 46 49 52 55 58 58 63 68 70 72
6 27 16 25 43 46 56 79 56 57 58 68 79 94 89 76 82 89 79 68 58 51 34 27 27 25 25 30 35 39 43 47 48 49 50 53 57 58 59 59 61 62 62 63
Wind_Direction_500mb
188 203 215 217 217 238 261 277 280 286 302 308 282 283 255 261 267 262 259 269 264 255 246 237 232 217 211 216 216 219 221 221 209 214 216 220 212 213 220 225 228 233 231 224
183 227 225 234 238 243 246 255 264 278 280 285 288 276 273 255 265 270 268 247 245 246 245 249 232 213 209 216 219 219 222 223 214 212 218 219 217 217 219 224 227 232 233 229
222 227 214 232 244 250 244 252 265 271 289 292 302 282 270 258 251 255 262 260 255 252 248 233 242 227 211 217 220 220 222 225 222 217 214 214 221 218 218 224 227 232 235 235
244 242 250 249 247 239 249 246 256 263 265 260 225 276 238 259 260 241 240 246 242 239 243 242 236 232 216 220 225 230 223 225 226 217 211 214 221 219 220 224 226 228 231 235
237 253 222 239 254 241 257 238 270 253 269 262 246 270 184 212 250 253 256 247 232 234 237 238 238 233 227 223 225 231 225 224 226 220 217 216 217 226 226 223 227 229 232 236
258 273 273 254 289 240 255 269 261 273 260 249 240 222 280 227 230 248 263 250 231 229 234 238 240 237 235 225 226 229 225 222 226 224 219 219 219 220 223 227 228 229 230 234
245 244 257 265 266 273 243 222 237 224 217 240 169 214 243 281 262 281 292 285 291 291 289 249 240 240 236 228 224 226 226 223 223 225 222 221 225 224 227 230 231 230 229 232
255 244 225 219 228 225 226 221 210 217 224 249 189 233 243 221 235 254 262 274 276 271 272 270 247 238 239 234 225 224 225 226 224 226 227 224 226 223 227 229 232 235 234 234
325 329 322 314 256 218 223 236 229 258 279 282 252 250 254 243 240 244 259 257 270 277 271 264 245 258 242 233 229 223 226 232 230 227 228 226 224 224 226 229 231 236 238 237
173 301 291 301 324 305 221 225 238 231 243 247 255 242 253 215 225 222 246 246 252 259 264 253 254 246 242 236 230 229 231 235 235 231 230 229 226 226 226 226 227 233 237 238
178 197 280 300 292 312 248 225 231 265 243 241 254 247 253 265 258 254 277 267 229 220 227 246 251 245 239 239 229 228 229 232 233 232 231 230 227 226 225 226 227 230 233 238
250 325 340 288 278 268 265 269 269 229 249 254 245 258 279 274 273 302 234 86 93 241 313 300 274 250 241 231 226 225 227 229 232 231 230 230 229 226 224 225 224 228 231 236
158 230 303 318 332 320 92 350 330 328 301 251 251 255 259 253 275 273 224 187 195 316 208 295 314 320 278 245 233 226 224 228 230 229 229 228 229 226 225 224 222 226 228 232
178 217 231 247 260 271 285 288 286 285 277 303 277 269 264 279 269 285 228 245 251 255 227 228 254 298 320 290 257 237 229 229 228 226 226 227 228 223 225 223 218 222 225 230
169 212 229 247 266 277 279 281 282 266 270 260 276 272 277 285 273 282 298 285 252 212 210 234 257 269 296 280 262 253 243 232 228 225 224 227 229 227 223 221 218 220 224 230
199 246 256 268 266 270 279 275 277 277 267 269 271 275 273 268 276 283 268 277 236 225 240 259 270 279 283 271 263 272 270 250 235 229 227 229 228 227 223 221 220 220 223 225
188 194 151 259 267 290 287 253 253 261 258 259 267 275 280 258 262 265 272 276 281 278 274 274 275 277 273 276 272 275 280 263 248 240 233 230 227 226 224 222 220 220 221 223
183 194 164 262 306 263 252 266 258 261 262 265 268 282 269 258 261 258 259 259 267 271 273 273 271 269 272 274 273 276 259 252 251 244 237 232 227 225 225 223 222 220 222 225
225 215 232 240 242 266 288 266 271 280 283 281 275 275 272 263 277 242 247 258 265 270 269 266 266 267 262 263 266 266 254 246 247 248 241 235 231 227 224 221 222 222 221 221
222 226 222 232 237 249 264 273 279 287 280 258 255 263 262 260 254 260 257 254 257 259 264 266 268 262 261 259 261 260 250 244 246 249 247 239 234 230 226 223 220 221 221 218
144 182 224 233 243 255 264 272 277 269 262 317 313 329 325 264 255 252 250 254 256 264 268 267 261 261 264 262 258 252 248 247 251 244 240 237 234 231 228 223 220 218 214 213
187 173 204 216 242 262 247 260 238 272 310 321 310 314 321 325 326 291 263 263 265 266 268 268 261 255 259 256 249 245 247 249 240 236 233 232 231 227 223 219 215 214 212 208
230 212 220 204 219 289 297 287 293 309 309 298 291 295 297 306 307 309 320 310 290 279 277 260 257 256 251 245 246 247 252 240 232 227 226 222 221 220 220 216 212 206 204 203
262 230 234 256 260 261 273 282 282 291 301 316 294 306 317 320 313 302 299 298 309 279 268 264 254 252 252 250 248 249 242 231 227 226 222 217 214 212 212 211 209 206 201 200
230 54 236 275 274 279 272 274 273 287 300 300 300 299 300 303 298 298 294 289 293 277 272 290 280 262 253 245 241 238 233 225 222 221 217 211 209 207 206 208 207 206 207 206
180 247 246 255 264 257 275 284 290 291 293 291 290 292 297 296 287 293 289 282 289 268 275 289 288 283 263 247 240 239 230 226 222 215 211 208 204 202 201 200 199 203 205 203
Wind_Speed_850mb
32 16 29 39 35 39 32 36 39 33 26 17 19 23 18 24 39 40 51 51 48 51 46 62 69 75 72 71 75 74 78 79 89 99 94 92 94 87 78 74 65 59 52 55
14 37 35 31 35 37 36 39 41 30 26 29 28 43 31 22 30 50 49 51 60 59 59 51 47 73 80 78 79 80 79 81 83 100 100 99 96 96 86 79 72 65 60 55
31 30 38 37 30 33 35 37 31 33 20 29 23 50 34 31 49 59 71 72 69 61 51 59 60 57 83 85 82 85 87 83 83 90 99 98 93 95 89 90 83 79 70 67
34 31 33 29 26 28 36 24 27 32 17 17 10 34 17 13 24 34 73 79 73 72 78 65 69 70 81 88 86 84 92 89 87 90 103 105 107 113 109 105 96 86 80 77
45 8 16 36 41 25 40 13 20 16 17 15 32 18 6 20 26 33 29 49 76 80 79 80 81 78 81 90 93 88 93 95 90 88 94 105 97 105 99 105 104 99 92 87
54 37 31 16 17 26 24 15 21 16 10 19 39 24 27 21 29 22 15 33 39 57 66 75 74 77 79 89 95 90 90 98 97 96 101 107 104 99 105 102 109 106 105 98
33 48 52 45 29 23 16 16 12 11 13 29 19 22 43 19 14 15 25 41 43 42 39 60 69 67 72 85 97 96 92 97 103 103 102 105 106 105 107 107 106 104 105 104
20 23 41 37 47 29 27 32 15 21 24 30 20 16 35 24 46 63 58 57 49 42 49 39 45 56 59 63 90 98 96 94 101 103 104 105 106 105 107 106 104 105 101 96
11 14 31 25 39 43 50 32 51 34 35 20 11 24 43 30 33 19 26 48 58 55 54 49 47 54 61 63 75 93 93 91 97 102 102 102 105 105 104 105 105 102 99 92
6 15 16 22 26 19 51 37 28 24 38 41 28 27 34 13 15 22 34 35 60 72 60 53 52 50 50 60 64 75 87 92 91 97 102 103 101 101 100 99 105 105 100 93
5 8 16 19 5 18 18 39 36 27 20 33 33 21 30 41 22 21 21 24 21 12 11 25 34 32 48 50 60 72 84 88 90 93 96 102 100 98 98 99 98 104 99 96
5 6 8 29 42 38 34 26 34 22 32 24 37 34 35 26 13 13 20 14 8 6 5 8 14 29 41 48 56 60 73 83 86 86 90 97 95 90 95 99 93 96 98 95
8 5 6 22 18 7 2 12 34 32 12 43 35 27 31 37 50 36 11 12 13 5 1 3 6 6 10 21 40 58 62 69 73 77 83 88 90 88 90 92 93 93 93 92
11 7 15 13 22 22 29 37 25 24 12 19 23 47 47 30 19 18 33 28 35 38 23 19 11 13 21 23 24 32 50 59 64 71 76 82 88 85 84 88 87 89 87 89
12 11 21 28 37 38 38 44 40 34 37 31 38 45 46 40 42 33 34 36 14 29 31 31 29 28 36 32 25 28 31 43 53 66 73 78 79 78 77 82 85 88 89 88
14 14 17 23 33 36 39 41 38 37 39 43 49 59 48 46 76 38 43 46 30 36 40 41 41 38 31 29 21 22 27 35 43 52 65 72 73 74 74 76 81 87 89 87
12 7 6 26 27 25 16 30 31 38 43 40 45 52 51 40 46 41 55 57 63 55 44 42 46 48 44 47 45 42 39 35 41 47 53 61 65 72 76 76 78 88 91 86
12 14 7 22 10 20 33 33 40 45 49 44 35 44 47 37 57 65 63 68 67 62 62 54 54 57 60 52 49 46 43 44 44 49 52 56 61 67 72 73 80 86 86 85
27 18 14 14 15 30 38 32 24 38 49 43 52 49 46 53 58 69 81 76 64 57 58 65 66 69 63 60 55 50 48 47 47 50 54 57 60 64 70 74 77 80 81 80
35 28 22 12 14 18 40 35 31 35 32 66 29 49 47 43 31 29 58 60 73 84 97 87 79 74 71 65 63 55 52 52 54 52 54 56 59 63 67 67 69 74 74 75
6 7 30 28 23 20 34 21 35 24 46 24 34 33 35 30 38 85 64 48 56 59 62 60 59 59 56 58 60 59 55 61 55 52 53 56 56 59 59 60 65 69 72 71
15 9 11 8 13 33 23 21 16 26 55 61 75 66 50 54 75 59 70 74 67 66 69 69 64 56 51 50 53 53 56 55 55 52 52 53 53 54 56 60 65 68 67 72
17 22 12 15 11 13 56 34 75 50 44 65 82 87 72 67 68 66 54 47 54 59 58 52 48 49 45 43 44 48 50 55 54 52 50 52 52 53 57 61 65 68 71 75
10 11 14 27 28 25 63 58 63 78 51 78 68 63 51 49 57 74 70 61 59 39 28 28 37 47 46 46 50 48 48 51 51 50 48 49 52 52 56 59 64 71 76 79
13 4 14 16 23 43 73 65 51 52 70 69 75 79 72 69 71 66 75 68 62 48 27 24 23 26 32 37 40 43 45 49 49 47 46 49 52 55 58 58 63 68 70 72
6 27 16 25 43 46 56 79 56 57 58 68 79 94 89 76 82 89 79 68 58 51 34 27 27 25 25 30 35 39 43 47 48 49 50 53 57 58 59 59 61 62 62 63
Wind_Direction_850mb
188 203 215 217 217 238 261 277 280 286 302 308 282 283 255 261 267 262 259 269 264 255 246 237 232 217 211 216 216 219 221 221 209 214 216 220 212 213 220 225 228 233 231 224
183 227 225 234 238 243 246 255 264 278 280 285 288 276 273 255 265 270 268 247 245 246 245 249 232 213 209 216 219 219 222 223 214 212 218 219 217 217 219 224 227 232 233 229
222 227 214 232 244 250 244 252 265 271 289 292 302 282 270 258 251 255 262 260 255 252 248 233 242 227 211 217 220 220 222 225 222 217 214 214 221 218 218 224 227 232 235 235
244 242 250 249 247 239 249 246 256 263 265 260 225 276 238 259 260 241 240 246 242 239 243 242 236 232 216 220 225 230 223 225 226 217 211 214 221 219 220 224 226 228 231 235
237 253 222 239 254 241 257 238 270 253 269 262 246 270 184 212 250 253 256 247 232 234 237 238 238 233 227 223 225 231 225 224 226 220 217 216 217 226 226 223 227 229 232 236
258 273 273 254 289 240 255 269 261 273 260 249 240 222 280 227 230 248 263 250 231 229 234 238 240 237 235 225 226 229 225 222 226 224 219 219 219 220 223 227 228 229 230 234
245 244 257 265 266 273 243 222 237 224 217 240 169 214 243 281 262 281 292 285 291 291 289 249 240 240 236 228 224 226 226 223 223 225 222 221 225 224 227 230 231 230 229 232
255 244 225 219 228 225 226 221 210 217 224 249 189 233 243 221 235 254 262 274 276 271 272 270 247 238 239 234 225 224 225 226 224 226 227 224 226 223 227 229 232 235 234 234
325 329 322 314 256 218 223 236 229 258 279 282 252 250 254 243 240 244 259 257 270 277 271 264 245 258 242 233 229 223 226 232 230 227 228 226 224 224 226 229 231 236 238 237
173 301 291 301 324 305 221 225 238 231 243 247 255 242 253 215 225 222 246 246 252 259 264 253 254 246 242 236 230 229 231 235 235 231 230 229 226 226 226 226 227 233 237 238
178 197 280 300 292 312 248 225 231 265 243 241 254 247 253 265 258 254 277 267 229 220 227 246 251 245 239 239 229 228 229 232 233 232 231 230 227 226 225 226 227 230 233 238
250 325 340 288 278 268 265 269 269 229 249 254 245 258 279 274 273 302 234 86 93 241 313 300 274 250 241 231 226 225 227 229 232 231 230 230 229 226 224 225 224 228 231 236
158 230 303 318 332 320 92 350 330 328 301 251 251 255 259 253 275 273 224 187 195 316 208 295 314 320 278 245 233 226 224 228 230 229 229 228 229 226 225 224 222 226 228 232
178 217 231 247 260 271 285 288 286 285 277 303 277 269 264 279 269 285 228 245 251 255 227 228 254 298 320 290 257 237 229 229 228 226 226 227 228 223 225 223 218 222 225 230
169 212 229 247 266 277 279 281 282 266 270 260 276 272 277 285 273 282 298 285 252 212 210 234 257 269 296 280 262 253 243 232 228 225 224 227 229 227 223 221 218 220 224 230
199 246 256 268 266 270 279 275 277 277 267 269 271 275 273 268 276 283 268 277 236 225 240 259 270 279 283 271 263 272 270 250 235 229 227 229 228 227 223 221 220 220 223 225
188 194 151 259 267 290 287 253 253 261 258 259 267 275 280 258 262 265 272 276 281 278 274 274 275 277 273 276 272 275 280 263 248 240 233 230 227 226 224 222 220 220 221 223
183 194 164 262 306 263 252 266 258 261 262 265 268 282 269 258 261 258 259 259 267 271 273 273 271 269 272 274 273 276 259 252 251 244 237 232 227 225 225 223 222 220 222 225
225 215 232 240 242 266 288 266 271 280 283 281 275 275 272 263 277 242 247 258 265 270 269 266 266 267 262 263 266 266 254 246 247 248 241 235 231 227 224 221 222 222 221 221
222 226 222 232 237 249 264 273 279 287 280 258 255 263 262 260 254 260 257 254 257 259 264 266 268 262 261 259 261 260 250 244 246 249 247 239 234 230 226 223 220 221 221 218
144 182 224 233 243 255 264 272 277 269 262 317 313 329 325 264 255 252 250 254 256 264 268 267 261 261 264 262 258 252 248 247 251 244 240 237 234 231 228 223 220 218 214 213
187 173 204 216 242 262 247 260 238 272 310 321 310 314 321 325 326 291 263 263 265 266 268 268 261 255 259 256 249 245 247 249 240 236 233 232 231 227 223 219 215 214 212 208
230 212 220 204 219 289 297 287 293 309 309 298 291 295 297 306 307 309 320 310 290 279 277 260 257 256 251 245 246 247 252 240 232 227 226 222 221 220 220 216 212 206 204 203
262 230 234 256 260 261 273 282 282 291 301 316 294 306 317 320 313 302 299 298 309 279 268 264 254 252 252 250 248 249 242 231 227 226 222 217 214 212 212 211 209 206 201 200
230 54 236 275 274 279 272 274 273 287 300 300 300 299 300 303 298 298 294 289 293 277 272 290 280 262 253 245 241 238 233 225 222 221 217 211 209 207 206 208 207 206 207 206
180 247 246 255 264 257 275 284 290 291 293 291 290 292 297 296 287 293 289 282 289 268 275 289 288 283 263 247 240 239 230 226 222 215 211 208 204 202 201 200 199 203 205 203